Daviess Cnty AP, Washington,, IN

7:46 AM EDT on May 23, 2017 (GMT -0400)
Daviess County

Weather History for KDCY - January, 2014

Change the Weather History Date:

Saturday, January 11, 2014

  Actual Average (KLWV) Record (KLWV)
Temperature  
Mean Temperature 41 °F -  
Max Temperature 48 °F 35 °F 64 °F (2017)
Min Temperature 34 °F 20 °F -6 °F (1997)
Degree Days  
Heating Degree Days 24    
Moisture  
Dew Point 38 °F    
Average Humidity 92    
Maximum Humidity 100    
Minimum Humidity 84    
Precipitation  
Precipitation 0.08 in - - ()
Sea Level Pressure  
Sea Level Pressure 29.67 in    
Wind  
Wind Speed 11 mph (SW)    
Max Wind Speed 17 mph    
Max Gust Speed 22 mph    
Visibility 9 miles    
Events Fog , Rain    
Averages and records for this station are not official NWS values.
T = Trace of Precipitation, MM = Missing Value Source: NWS Daily Summary

Daily Weather History Graph

Daily Weather History Graph

Search for Another Location

Airport or City:

Trip Planner

Search our weather history database for the weather conditions in past years. The results will help you decide how hot, cold, wet, or windy it might be!

Date:

Astronomy

Jan. 11, 2014 Rise Set
Actual Time 8:06 AM EST 5:47 PM EST
Civil Twilight 7:36 AM EST 6:16 PM EST
Nautical Twilight 7:04 AM EST 6:49 PM EST
Astronomical Twilight 6:31 AM EST 7:21 PM EST
Moon 2:30 PM EST (1/11) 4:11 AM EST (1/11)
Length of Visible Light 10h 39m
Length of Day
9h 40m
Waxing Gibbous, 83% of the Moon is Illuminated
Jan 11
Waxing Gibbous
Jan 15
Full
Jan 24
Last Quarter
Jan 30
New
Feb 6
First Quarter

Hourly Weather History & Observations

Time (EST) Temp. Windchill Dew Point Humidity Pressure Visibility Wind Dir Wind Speed Gust Speed Precip Events Conditions
12:15 AM 45.9 °F 39.1 °F 45.7 °F 99% 29.62 in 7.0 mi SSE 16.1 mph - 0.02 in Rain Light Rain
12:35 AM 45.9 °F 40.0 °F 45.7 °F 99% 29.63 in 10.0 mi South 12.7 mph - 0.03 in Rain Light Rain
12:55 AM 45.5 °F 39.6 °F 45.5 °F 100% 29.62 in 7.0 mi South 12.7 mph - 0.04 in   Light Drizzle
1:15 AM 45.0 °F 39.7 °F 44.8 °F 99% 29.62 in 5.0 mi South 10.4 mph - N/A   Overcast
1:35 AM 44.2 °F 40.3 °F 44.2 °F 100% 29.61 in 5.0 mi South 6.9 mph - N/A   Overcast
1:55 AM 43.0 °F 39.5 °F 43.0 °F 100% 29.59 in 0.8 mi SSE 5.8 mph - N/A   Overcast
2:15 AM 42.4 °F 38.1 °F 42.4 °F 100% 29.59 in 0.2 mi South 6.9 mph - N/A Fog Fog
2:35 AM 43.2 °F 39.0 °F 43.2 °F 100% 29.57 in 0.5 mi South 6.9 mph - N/A Rain Light Rain
2:55 AM 42.4 °F 38.8 °F 42.4 °F 100% 29.57 in 0.5 mi South 5.8 mph - N/A Fog Fog
3:15 AM 42.3 °F 37.9 °F 42.3 °F 100% 29.57 in 0.2 mi South 6.9 mph - 0.01 in Rain Light Rain
3:35 AM 43.9 °F 38.8 °F 43.9 °F 100% 29.56 in 1.2 mi South 9.2 mph - 0.02 in Rain Light Rain
3:55 AM 45.5 °F 39.9 °F 45.5 °F 100% 29.54 in 10.0 mi South 11.5 mph - 0.02 in   Light Drizzle
4:15 AM 45.9 °F 40.8 °F 45.9 °F 100% 29.54 in 10.0 mi South 10.4 mph - N/A   Overcast
4:35 AM 46.4 °F 41.5 °F 46.4 °F 100% 29.53 in 10.0 mi South 10.4 mph - N/A   Overcast
4:55 AM 47.3 °F - 47.3 °F 100% 29.53 in 4.0 mi SSW 10.4 mph - 0.02 in Rain Rain
5:15 AM 48.2 °F - 48.2 °F 100% 29.53 in 7.0 mi SW 16.1 mph - N/A Rain Light Rain
5:35 AM 48.4 °F - 48.4 °F 100% 29.53 in 10.0 mi SW 13.8 mph 21.9 mph N/A   Overcast
5:55 AM 48.0 °F - 47.7 °F 99% 29.53 in 10.0 mi SW 12.7 mph 19.6 mph N/A   Overcast
6:15 AM 47.5 °F - 47.3 °F 99% 29.54 in 10.0 mi WSW 15.0 mph 20.7 mph N/A   Overcast
6:35 AM 47.3 °F - 46.4 °F 97% 29.55 in 10.0 mi WSW 12.7 mph - N/A   Overcast
6:55 AM 46.6 °F - 46.0 °F 98% 29.55 in 10.0 mi WSW 10.4 mph 17.3 mph N/A   Overcast
7:15 AM 46.2 °F 40.8 °F 45.5 °F 97% 29.54 in 10.0 mi West 11.5 mph - N/A   Overcast
7:35 AM 45.9 °F 40.8 °F 45.0 °F 97% 29.55 in 10.0 mi WSW 10.4 mph - N/A   Overcast
7:55 AM 45.5 °F 39.2 °F 44.4 °F 96% 29.56 in 10.0 mi West 13.8 mph - N/A   Overcast
8:15 AM 44.2 °F 38.8 °F 42.6 °F 94% 29.57 in 10.0 mi West 10.4 mph - N/A   Overcast
8:35 AM 43.7 °F 38.1 °F 41.2 °F 91% 29.59 in 10.0 mi West 10.4 mph - N/A   Overcast
8:55 AM 43.0 °F 36.4 °F 40.6 °F 91% 29.60 in 10.0 mi WSW 12.7 mph 21.9 mph N/A   Overcast
9:15 AM 41.9 °F 34.3 °F 39.2 °F 90% 29.61 in 10.0 mi WSW 15.0 mph 21.9 mph N/A   Mostly Cloudy
9:35 AM 41.7 °F 34.8 °F 38.5 °F 88% 29.62 in 10.0 mi West 12.7 mph 21.9 mph N/A   Overcast
9:55 AM 41.5 °F 33.8 °F 38.5 °F 89% 29.63 in 10.0 mi West 15.0 mph - N/A   Overcast
10:15 AM 41.2 °F 34.1 °F 37.2 °F 86% 29.64 in 10.0 mi West 12.7 mph 21.9 mph N/A   Overcast
10:35 AM 40.8 °F 32.9 °F 36.7 °F 85% 29.65 in 10.0 mi West 15.0 mph - N/A   Overcast
10:55 AM 40.3 °F 32.6 °F 36.7 °F 87% 29.66 in 10.0 mi West 13.8 mph 18.4 mph N/A   Overcast
11:15 AM 40.1 °F 32.7 °F 36.9 °F 88% 29.66 in 10.0 mi West 12.7 mph - N/A   Overcast
11:35 AM 40.1 °F 32.4 °F 36.9 °F 88% 29.66 in 10.0 mi West 13.8 mph 17.3 mph N/A   Overcast
11:55 AM 40.1 °F 32.4 °F 36.3 °F 86% 29.67 in 10.0 mi West 13.8 mph - N/A   Overcast
12:15 PM 40.1 °F 32.7 °F 35.8 °F 85% 29.68 in 10.0 mi WSW 12.7 mph 21.9 mph N/A   Overcast
12:35 PM 39.4 °F 31.8 °F 36.1 °F 88% 29.68 in 10.0 mi West 12.7 mph - N/A   Overcast
12:55 PM 38.7 °F 29.5 °F 35.1 °F 87% 29.68 in 10.0 mi West 17.3 mph 20.7 mph N/A   Overcast
1:15 PM 37.9 °F 28.9 °F 34.2 °F 86% 29.68 in 10.0 mi West 16.1 mph - N/A   Overcast
1:35 PM 37.6 °F 28.4 °F 34.2 °F 87% 29.68 in 10.0 mi West 16.1 mph 21.9 mph N/A   Overcast
1:55 PM 37.4 °F 30.3 °F 34.0 °F 87% 29.68 in 10.0 mi West 10.4 mph 21.9 mph N/A   Overcast
2:15 PM 37.2 °F 29.6 °F 33.8 °F 87% 29.68 in 10.0 mi West 11.5 mph 19.6 mph N/A   Overcast
2:35 PM 37.0 °F 28.9 °F 34.2 °F 89% 29.68 in 10.0 mi West 12.7 mph - N/A   Overcast
2:55 PM 36.7 °F 28.4 °F 33.8 °F 89% 29.69 in 10.0 mi WSW 12.7 mph 19.6 mph N/A   Overcast
3:15 PM 36.7 °F 28.9 °F 33.8 °F 89% 29.70 in 10.0 mi West 11.5 mph 18.4 mph N/A   Overcast
3:35 PM 36.9 °F 28.2 °F 33.3 °F 87% 29.71 in 10.0 mi West 13.8 mph - N/A   Overcast
3:55 PM 36.7 °F 28.9 °F 33.6 °F 89% 29.72 in 10.0 mi West 11.5 mph - N/A   Overcast
4:15 PM 36.9 °F 28.7 °F 33.8 °F 89% 29.72 in 10.0 mi West 12.7 mph - N/A   Overcast
4:35 PM 37.0 °F 29.3 °F 33.8 °F 88% 29.73 in 10.0 mi West 11.5 mph 16.1 mph N/A   Overcast
4:55 PM 37.0 °F 29.8 °F 33.4 °F 87% 29.74 in 10.0 mi WSW 10.4 mph 17.3 mph N/A   Overcast
5:15 PM 36.9 °F 30.1 °F 33.4 °F 87% 29.75 in 10.0 mi WSW 9.2 mph - N/A   Overcast
5:35 PM 36.5 °F 29.7 °F 32.9 °F 87% 29.75 in 10.0 mi WSW 9.2 mph - N/A   Mostly Cloudy
5:55 PM 35.2 °F 29.5 °F 32.5 °F 90% 29.75 in 10.0 mi WSW 6.9 mph - N/A   Scattered Clouds
6:15 PM 34.7 °F 28.8 °F 32.5 °F 92% 29.76 in 10.0 mi SW 6.9 mph - N/A   Clear
6:35 PM 34.7 °F 29.6 °F 32.5 °F 92% 29.77 in 10.0 mi SW 5.8 mph - N/A   Clear
6:55 PM 34.9 °F 29.9 °F 32.7 °F 92% 29.77 in 10.0 mi SSW 5.8 mph - N/A   Clear
7:15 PM 35.1 °F 29.3 °F 32.7 °F 91% 29.79 in 10.0 mi SW 6.9 mph - N/A   Clear
7:35 PM 34.9 °F 29.0 °F 32.9 °F 92% 29.79 in 10.0 mi SW 6.9 mph - N/A   Clear
7:55 PM 35.1 °F 29.3 °F 32.9 °F 92% 29.79 in 10.0 mi SSW 6.9 mph - N/A   Clear
8:15 PM 35.1 °F 27.9 °F 32.9 °F 92% 29.80 in 10.0 mi SSW 9.2 mph - N/A   Clear
8:35 PM 35.6 °F 29.2 °F 32.9 °F 90% 29.81 in 10.0 mi SW 8.1 mph - N/A   Clear
8:55 PM 35.4 °F 29.7 °F 32.9 °F 91% 29.81 in 10.0 mi SW 6.9 mph - N/A   Clear
9:15 PM 35.6 °F 29.2 °F 32.9 °F 90% 29.82 in 10.0 mi SW 8.1 mph - N/A   Clear
9:35 PM 35.6 °F 30.7 °F 32.5 °F 89% 29.82 in 10.0 mi SW 5.8 mph - N/A   Clear
9:55 PM 36.1 °F 29.9 °F 32.5 °F 87% 29.83 in 10.0 mi WSW 8.1 mph - N/A   Clear
10:15 PM 36.5 °F 30.3 °F 32.4 °F 85% 29.84 in 10.0 mi WSW 8.1 mph - N/A   Clear
10:35 PM 36.5 °F 29.7 °F 32.2 °F 84% 29.85 in 10.0 mi WSW 9.2 mph - N/A   Clear
10:55 PM 35.8 °F 28.8 °F 32.0 °F 86% 29.86 in 10.0 mi WSW 9.2 mph - N/A   Scattered Clouds
11:15 PM 35.8 °F 28.3 °F 32.0 °F 86% 29.86 in 10.0 mi West 10.4 mph - N/A   Scattered Clouds
11:35 PM 36.0 °F 28.5 °F 32.0 °F 86% 29.87 in 10.0 mi West 10.4 mph - N/A   Clear
11:55 PM 35.8 °F 28.3 °F 32.0 °F 86% 29.87 in 10.0 mi West 10.4 mph - N/A   Clear